[[{"header":{"parameterUnit":"m.s-1","parameterCategory":1,"la1":30.2991,"la2":30.254,"lo1":-89.0895,"lo2":-89.0444,"dy":0.0017,"dx":0.0017,"nx":28,"ny":28,"refTime":"2024-04-23T03:00:00:Z","depth":0,"parameterNumber":2,"parameterNumberName":"U-component_of_WINDS"},"data":[0,0,0,0,0,0,0,0,0,0,0,0,0,0,0,0,0,0,0,0,0,0,0,0,0,0,0,0,0,0,0,0,0,0,0,0,0,0,0,0,0,0,0,0,0,0,0,0,0,0,0,0,0,0,0,0,0,0,-0.1278,-0.1276,0,-0.1164,-0.1162,-0.1161,-0.1107,-0.1107,-0.1107,-0.1107,-0.0989,-0.0986,-0.0982,0,0,0,0,0,0,0,0,0,0,0,0,0,-0.1448,-0.1445,-0.1278,-0.1276,-0.1275,-0.1164,-0.1162,-0.1161,-0.1107,-0.1107,-0.1107,-0.1107,-0.099,-0.0986,-0.0982,0,0,0,0,0,0,0,0,0,0,0,0,0,-0.1358,-0.1444,-0.1278,-0.1235,-0.1229,-0.1164,-0.1162,-0.116,-0.1107,-0.1107,-0.1107,-0.1107,-0.0991,-0.0986,-0.0982,-0.095,0,0,-0.0967,-0.0965,0,0,0,0,0,0,0,0,-0.1363,-0.1352,-0.1242,-0.1237,-0.1232,-0.115,-0.1179,-0.109,-0.1107,-0.1153,-0.1107,-0.1107,-0.1042,-0.1033,-0.1011,-0.0945,-0.094,-0.0967,-0.0964,-0.0962,-0.096,0,0,0,0,0,0,0,-0.137,-0.1356,-0.1232,-0.1241,-0.1234,-0.1221,-0.1208,-0.1162,-0.1099,-0.1149,-0.1145,-0.1132,-0.1039,-0.1016,-0.1008,-0.0938,-0.0967,-0.0962,-0.096,-0.0958,-0.0841,-0.0841,0,0,0,0,0,0,-0.1383,-0.1362,-0.1236,-0.1229,-0.1299,-0.1218,-0.1203,-0.1176,-0.1099,-0.1087,-0.1132,-0.113,-0.1024,-0.1014,-0.1004,-0.0963,-0.0962,-0.0957,-0.0954,-0.0841,-0.0841,-0.0841,0,0,0,0,0,0,-0.1387,-0.1372,-0.1241,-0.1294,-0.1277,-0.1214,-0.1184,-0.1174,-0.115,-0.1086,-0.1075,-0.1121,-0.1024,-0.1011,-0.0964,-0.0958,-0.0955,-0.0951,-0.0842,-0.0841,-0.0841,-0.088,0,0,0,0,0,0,-0.1392,-0.1374,-0.1361,-0.1294,-0.1274,-0.1203,-0.1184,-0.1171,-0.1143,-0.1139,-0.1072,-0.1061,-0.1023,-0.0972,-0.096,-0.0951,-0.0947,-0.0842,-0.0841,-0.0841,-0.0879,-0.0881,-0.0883,0,0,0,0,0,-0.1398,-0.1376,-0.1361,-0.1346,-0.1257,-0.1203,-0.1191,-0.1148,-0.1142,-0.1129,-0.1088,-0.1063,-0.0961,-0.0968,-0.0953,-0.0943,-0.0842,-0.0841,-0.0841,-0.0878,-0.0881,-0.0883,0,0,0,0,0,0,-0.1444,-0.1367,-0.1349,-0.1305,-0.1261,-0.1194,-0.1176,-0.1152,-0.1109,-0.1107,-0.1055,-0.104,-0.0999,-0.0966,-0.0976,-0.091,-0.0899,-0.0896,-0.0932,-0.0934,-0.0936,-0.0944,-0.0943,0,0,0,0,0,-0.1449,-0.1411,-0.1346,-0.1314,-0.1293,-0.1239,-0.1213,-0.1184,-0.1137,-0.1117,-0.1073,-0.1027,-0.0985,-0.0958,-0.0915,-0.0874,-0.0859,-0.0861,-0.0863,-0.0864,-0.0862,-0.0839,-0.0839,-0.0839,-0.0839,-0.0839,0,0,-0.1458,-0.1412,-0.1391,-0.1322,-0.1284,-0.1247,-0.1223,-0.1184,-0.1156,-0.1111,-0.1065,-0.1031,-0.0977,-0.0933,-0.0912,-0.0905,-0.0859,-0.0864,-0.0866,-0.0862,-0.0838,-0.0838,-0.0838,-0.0839,-0.0839,-0.0839,0,0,-0.1457,-0.1418,-0.1387,-0.135,-0.1294,-0.1258,-0.1251,-0.1188,-0.1164,-0.1117,-0.1083,-0.1048,-0.0976,-0.0939,-0.0911,-0.0897,-0.0872,-0.0884,-0.0894,-0.0872,-0.0872,-0.0872,-0.0867,-0.0866,-0.0882,-0.0882,-0.0882,0,-0.1476,-0.1418,-0.1374,-0.1337,-0.1308,-0.1267,-0.1235,-0.1201,-0.1134,-0.1115,-0.1108,-0.1017,-0.0978,-0.0926,-0.0922,-0.0901,-0.0891,-0.0891,-0.0876,-0.0875,-0.0874,-0.0869,-0.0867,-0.0884,-0.0884,-0.0884,-0.0884,0,-0.1444,-0.1405,-0.1387,-0.1324,-0.1292,-0.1258,-0.1209,-0.1183,-0.1157,-0.1122,-0.1075,-0.1026,-0.0973,-0.0959,-0.0933,-0.0903,-0.0901,-0.0886,-0.0874,-0.0876,-0.0871,-0.0868,-0.0887,-0.0886,-0.0886,-0.0885,0,0,-0.1467,-0.1381,-0.1375,-0.1346,-0.1282,-0.1251,-0.1215,-0.1164,-0.1143,-0.1098,-0.1067,-0.1008,-0.0994,-0.0962,-0.0931,-0.0912,-0.0905,-0.0899,-0.0897,-0.0902,-0.0869,-0.0881,-0.088,-0.0889,-0.0888,-0.0887,-0.0874,0,-0.1457,-0.1391,-0.1351,-0.1302,-0.1265,-0.1226,-0.1196,-0.1153,-0.112,-0.1084,-0.1047,-0.1006,-0.099,-0.0971,-0.095,-0.091,-0.0897,-0.091,-0.0859,-0.0858,-0.0873,-0.0876,-0.0888,-0.0878,-0.0872,-0.0871,-0.0871,0,-0.1435,-0.1392,-0.134,-0.1281,-0.1264,-0.1237,-0.1187,-0.1154,-0.1105,-0.1082,-0.1047,-0.1017,-0.0978,-0.097,-0.0916,-0.0926,-0.0903,-0.088,-0.0878,-0.0871,-0.0864,-0.087,-0.0873,-0.0872,-0.0867,-0.0867,-0.0867,0,-0.1457,-0.1386,-0.1346,-0.1323,-0.1252,-0.1235,-0.1204,-0.1156,-0.1128,-0.1085,-0.1066,-0.1019,-0.0993,-0.0957,-0.0915,-0.0913,-0.0865,-0.0854,-0.0845,-0.0846,-0.0836,-0.0837,-0.0836,-0.0822,-0.0822,-0.0822,-0.0822,0,-0.1449,-0.1419,-0.1355,-0.133,-0.1295,-0.1249,-0.1216,-0.1183,-0.114,-0.1108,-0.1071,-0.1042,-0.0988,-0.0953,-0.0919,-0.088,-0.0868,-0.0849,-0.084,-0.0852,-0.0854,-0.0835,-0.0835,-0.0821,-0.0821,-0.0822,-0.0822,0,-0.1467,-0.1423,-0.1377,-0.1315,-0.1299,-0.1276,-0.1222,-0.1197,-0.1162,-0.1123,-0.1111,-0.1056,-0.1012,-0.0967,-0.0907,-0.0885,-0.0847,-0.0835,-0.0863,-0.0858,-0.0852,-0.0854,-0.0839,-0.0835,-0.0824,-0.0824,-0.0824,0,-0.1465,-0.1441,-0.1377,-0.1353,-0.1324,-0.1286,-0.1258,-0.1212,-0.1185,-0.1128,-0.1109,-0.1063,-0.1023,-0.0955,-0.091,-0.0865,-0.0851,-0.085,-0.0844,-0.0857,-0.0851,-0.0853,-0.0851,-0.0851,-0.0852,-0.0852,-0.0852,0,-0.1466,-0.1445,-0.1406,-0.136,-0.1328,-0.1289,-0.1249,-0.1231,-0.1178,-0.1149,-0.1104,-0.1074,-0.1013,-0.0968,-0.0917,-0.0886,-0.086,-0.0854,-0.085,-0.0861,-0.0879,-0.0869,-0.0868,-0.0855,-0.0854,-0.0854,-0.0854,-0.0854,-0.1473,-0.145,-0.1402,-0.1359,-0.1325,-0.1288,-0.1262,-0.1225,-0.1187,-0.1134,-0.111,-0.1065,-0.1018,-0.0947,-0.0917,-0.0881,-0.0874,-0.0867,-0.0865,-0.0865,-0.0868,-0.0885,-0.0872,-0.0872,-0.0871,-0.0871,-0.0871,0,-0.1472,-0.1439,-0.1401,-0.1346,-0.1314,-0.1293,-0.1248,-0.1222,-0.1183,-0.1141,-0.1104,-0.1053,-0.1009,-0.0961,-0.0914,-0.0895,-0.0882,-0.0884,-0.0885,-0.0878,-0.0877,-0.0885,-0.0896,-0.0896,-0.0896,-0.0896,-0.0896,-0.0896,-0.1467,-0.1427,-0.1402,-0.1344,-0.1312,-0.1268,-0.1244,-0.121,-0.1177,-0.1122,-0.1086,-0.1055,-0.1011,-0.0961,-0.092,-0.0907,-0.0892,-0.0897,-0.0881,-0.088,-0.0878,-0.0877,-0.0884,-0.0894,-0.0894,-0.0885,-0.0885,-0.0885]},{"header":{"parameterUnit":"m.s-1","parameterCategory":1,"la1":30.2991,"la2":30.254,"lo1":-89.0895,"lo2":-89.0444,"dy":0.0017,"dx":0.0017,"nx":28,"ny":28,"refTime":"2024-04-23T03:00:00:Z","depth":0,"parameterNumber":3,"parameterNumberName":"V-component_of_WINDS"},"data":[0,0,0,0,0,0,0,0,0,0,0,0,0,0,0,0,0,0,0,0,0,0,0,0,0,0,0,0,0,0,0,0,0,0,0,0,0,0,0,0,0,0,0,0,0,0,0,0,0,0,0,0,0,0,0,0,0,0,2.6606,2.6606,0,2.6558,2.6557,2.6557,2.6556,2.6557,2.6558,2.6558,2.6502,2.65,2.6498,0,0,0,0,0,0,0,0,0,0,0,0,0,2.6694,2.6692,2.6606,2.6606,2.6605,2.6558,2.6557,2.6556,2.6556,2.6557,2.6558,2.6558,2.6502,2.65,2.6497,0,0,0,0,0,0,0,0,0,0,0,0,0,2.6651,2.6692,2.6607,2.66,2.6598,2.6558,2.6557,2.6556,2.6556,2.6557,2.6558,2.6559,2.6503,2.65,2.6497,2.6458,0,0,2.6488,2.6486,0,0,0,0,0,0,0,0,2.6654,2.6648,2.6601,2.66,2.6599,2.6564,2.6567,2.6523,2.6556,2.6572,2.6558,2.6559,2.6521,2.6517,2.6505,2.6456,2.6453,2.6487,2.6485,2.6484,2.6483,0,0,0,0,0,0,0,2.6657,2.665,2.6587,2.66,2.6599,2.6597,2.6592,2.6559,2.6541,2.6571,2.657,2.6565,2.6521,2.6508,2.6504,2.6453,2.6487,2.6485,2.6483,2.6481,2.6368,2.6367,0,0,0,0,0,0,2.6662,2.6653,2.6588,2.6586,2.6629,2.6595,2.6589,2.6574,2.6542,2.6538,2.6564,2.6565,2.6513,2.6508,2.6502,2.6454,2.6484,2.6481,2.6479,2.6369,2.6368,2.6367,0,0,0,0,0,0,2.6664,2.6656,2.659,2.6619,2.6611,2.6592,2.6575,2.6573,2.656,2.6537,2.6534,2.6555,2.6514,2.6506,2.647,2.6452,2.648,2.6477,2.6371,2.6369,2.6367,2.6358,0,0,0,0,0,0,2.6666,2.6657,2.6643,2.6619,2.6609,2.6561,2.6574,2.6571,2.6556,2.6556,2.6528,2.6524,2.6514,2.6474,2.6466,2.6448,2.6474,2.6372,2.637,2.6368,2.636,2.6356,2.6353,0,0,0,0,0,2.6669,2.6641,2.6643,2.6635,2.6592,2.656,2.6554,2.6545,2.6554,2.6539,2.6525,2.6525,2.6456,2.6471,2.6462,2.6442,2.6373,2.637,2.6368,2.6361,2.6357,2.6353,0,0,0,0,0,0,2.6661,2.6638,2.6639,2.6603,2.6583,2.656,2.6541,2.6541,2.6517,2.6518,2.6506,2.65,2.6463,2.6449,2.6466,2.6403,2.6415,2.6411,2.6413,2.6409,2.6406,2.6409,2.6472,0,0,0,0,0,2.6656,2.6634,2.6613,2.6583,2.6574,2.6559,2.6544,2.654,2.6518,2.6509,2.6492,2.647,2.6443,2.6425,2.6399,2.6358,2.6351,2.6341,2.6337,2.6335,2.6331,2.6307,2.6302,2.6358,2.6358,2.6359,0,0,2.6643,2.6628,2.6614,2.6581,2.6566,2.6541,2.6552,2.6525,2.6506,2.6505,2.6469,2.6456,2.643,2.6391,2.6373,2.6378,2.6314,2.6332,2.633,2.6327,2.6304,2.6299,2.6294,2.6357,2.6357,2.6357,0,0,2.6608,2.6594,2.6568,2.6552,2.653,2.652,2.6514,2.6491,2.6482,2.6447,2.6445,2.6422,2.6376,2.6358,2.6342,2.6301,2.63,2.6293,2.6275,2.6252,2.6248,2.6244,2.6228,2.6223,2.6289,2.6289,2.6289,0,2.6594,2.6559,2.6553,2.6527,2.6512,2.6512,2.6484,2.6469,2.6438,2.6427,2.6434,2.6377,2.636,2.6316,2.6306,2.6294,2.6285,2.6295,2.625,2.6245,2.6241,2.6226,2.622,2.6288,2.6288,2.6289,2.6289,0,2.6543,2.6518,2.6499,2.6472,2.6455,2.6428,2.6416,2.6399,2.6396,2.6385,2.6349,2.6329,2.6299,2.6288,2.6284,2.6244,2.6248,2.6252,2.6264,2.6235,2.6221,2.6215,2.6287,2.6288,2.6288,2.6288,0,0,2.6499,2.6471,2.6463,2.6451,2.6427,2.6406,2.6379,2.6352,2.6337,2.6316,2.6291,2.6254,2.6258,2.6241,2.6234,2.6215,2.6182,2.6222,2.6221,2.6214,2.6135,2.6131,2.6125,2.6182,2.6181,2.618,2.6137,0,2.646,2.6413,2.6408,2.6365,2.6342,2.6342,2.6318,2.6299,2.6289,2.6266,2.6253,2.6227,2.6235,2.6225,2.6205,2.619,2.6166,2.6193,2.6157,2.6155,2.6162,2.6117,2.6112,2.6073,2.6131,2.6131,2.613,0,2.6408,2.6388,2.6344,2.6323,2.6313,2.6291,2.6266,2.6245,2.6223,2.6217,2.6199,2.6195,2.6165,2.6179,2.6136,2.6155,2.614,2.613,2.6129,2.6123,2.614,2.6109,2.606,2.6054,2.6121,2.6122,2.6122,0,2.6379,2.6341,2.631,2.6299,2.6274,2.6259,2.6248,2.6228,2.6212,2.6189,2.6178,2.6152,2.6136,2.6115,2.6104,2.6116,2.6061,2.6075,2.6053,2.6054,2.604,2.6041,2.5987,2.6033,2.6033,2.6033,2.6033,0,2.6335,2.6308,2.6297,2.6277,2.6246,2.6239,2.6208,2.6197,2.6179,2.6156,2.6154,2.6132,2.612,2.6095,2.6086,2.6051,2.6045,2.6037,2.6035,2.6037,2.6037,2.6025,2.6027,2.6032,2.6032,2.6032,2.6033,0,2.6297,2.6289,2.6255,2.6235,2.6229,2.6207,2.6189,2.6169,2.616,2.613,2.6123,2.6107,2.6078,2.6066,2.603,2.6024,2.5983,2.5984,2.5991,2.599,2.5969,2.597,2.5903,2.5894,2.5948,2.5947,2.5947,0,2.6269,2.6249,2.6227,2.6213,2.6202,2.6178,2.6163,2.6155,2.6139,2.6113,2.6096,2.6068,2.6045,2.5999,2.5982,2.5955,2.5953,2.5932,2.5949,2.5951,2.5951,2.5952,2.5949,2.5928,2.5927,2.5927,2.5927,0,2.622,2.6217,2.6196,2.6173,2.6155,2.6136,2.6118,2.6106,2.6095,2.6076,2.6048,2.6031,2.5995,2.5966,2.5938,2.5924,2.5923,2.5922,2.5915,2.5916,2.5921,2.5917,2.5981,2.5923,2.5923,2.5924,2.5924,2.5924,2.6185,2.6167,2.6149,2.6125,2.6111,2.6094,2.6075,2.6064,2.6041,2.6013,2.6009,2.5979,2.5957,2.592,2.5905,2.588,2.5884,2.5875,2.5872,2.587,2.5868,2.5927,2.5874,2.5874,2.5875,2.5875,2.5875,0,2.6135,2.6124,2.6102,2.6078,2.6059,2.6062,2.6042,2.6025,2.5999,2.5981,2.5959,2.5926,2.5899,2.5881,2.5853,2.5836,2.5835,2.5829,2.5829,2.5826,2.5866,2.5874,2.583,2.583,2.583,2.583,2.583,2.583,2.6106,2.6075,2.607,2.6032,2.602,2.5992,2.598,2.5964,2.5949,2.5914,2.5892,2.5881,2.5863,2.5833,2.5808,2.5803,2.5792,2.5786,2.5781,2.5818,2.5823,2.5827,2.5835,2.5784,2.5784,2.5743,2.5742,2.5742]}]]